CFG9TC EDDL-LIEO

Flight info

Callsign CFG9TC
Flight time N/A
Altitude 39000
Route DODEN1T DODEN Y852 TUSUK DCT ULNOK L607 ABUKA DCT BATUB DCT TIRUL M738 NATAG DCT LORLO DCT ATPED DCT GOVGO/N0457F350 DCT VELAD/N0456F270 DCT TINTO/N0405F190 Q710 GITRI
Aircraft A320/M-SDE3FGHIRWY/LB1

Departure

Time 2026-05-04 19:08
Airport Düsseldorf Airport (EDDL)

Arrival

Time N/A
Airport Olbia Costa Smeralda Airport (LIEO)
Time Latitude Longitude Altitude Speed Heading
2026-05-04 18:10 51.27888 6.76331 127 ft 0 kts 50°
2026-05-04 18:14 51.27905 6.76252 125 ft 0 kts 45°
2026-05-04 18:44 51.27904 6.76251 130 ft 2 kts 45°
2026-05-04 18:44 51.27893 6.76232 126 ft 4 kts 46°
2026-05-04 18:44 51.27868 6.76201 126 ft 4 kts 350°
2026-05-04 18:44 51.27849 6.76218 129 ft 4 kts 310°
2026-05-04 18:45 51.27840 6.76252 130 ft 3 kts 269°
2026-05-04 18:45 51.27841 6.76288 128 ft 0 kts 269°
2026-05-04 18:48 51.27841 6.76267 128 ft 7 kts 269°
2026-05-04 18:48 51.27841 6.76155 128 ft 10 kts 271°
2026-05-04 18:49 51.27851 6.76063 127 ft 6 kts 327°
2026-05-04 18:49 51.27892 6.76049 127 ft 6 kts 358°
2026-05-04 18:49 51.27968 6.76048 130 ft 11 kts 358°
2026-05-04 18:49 51.28040 6.76048 128 ft 10 kts
2026-05-04 18:50 51.28076 6.76047 130 ft 0 kts 348°
2026-05-04 18:51 51.28105 6.76029 126 ft 11 kts 344°
2026-05-04 18:51 51.28162 6.76089 127 ft 10 kts 52°
2026-05-04 18:51 51.28201 6.76170 124 ft 9 kts 52°
2026-05-04 18:51 51.28236 6.76244 128 ft 8 kts 53°
2026-05-04 18:52 51.28272 6.76322 124 ft 12 kts 53°
2026-05-04 18:52 51.28345 6.76470 121 ft 19 kts 52°
2026-05-04 18:52 51.28427 6.76642 122 ft 20 kts 53°
2026-05-04 18:52 51.28509 6.76817 128 ft 19 kts 53°
2026-05-04 18:53 51.28587 6.76981 128 ft 18 kts 52°
2026-05-04 18:53 51.28659 6.77130 130 ft 16 kts 52°
2026-05-04 18:53 51.28723 6.77267 128 ft 14 kts 53°
2026-05-04 18:53 51.28780 6.77386 129 ft 12 kts 53°
2026-05-04 18:54 51.28828 6.77489 130 ft 11 kts 53°
2026-05-04 18:54 51.28870 6.77577 124 ft 9 kts 53°
2026-05-04 18:54 51.28905 6.77651 125 ft 8 kts 52°
2026-05-04 18:54 51.28934 6.77711 124 ft 6 kts 52°
2026-05-04 18:55 51.28959 6.77764 129 ft 9 kts 52°
2026-05-04 18:55 51.29056 6.77965 128 ft 11 kts 52°
2026-05-04 18:55 51.29121 6.78099 133 ft 15 kts 52°
2026-05-04 18:56 51.29172 6.78205 137 ft 10 kts 52°
2026-05-04 18:56 51.29204 6.78263 139 ft 4 kts 38°
2026-05-04 18:56 51.29242 6.78311 141 ft 17 kts 38°
2026-05-04 18:56 51.29281 6.78356 143 ft 3 kts 35°
2026-05-04 18:57 51.29286 6.78361 143 ft 0 kts 35°
2026-05-04 18:58 51.29307 6.78385 144 ft 15 kts 35°
2026-05-04 18:58 51.29356 6.78439 147 ft 5 kts 35°
2026-05-04 18:59 51.29358 6.78442 147 ft 0 kts 35°
2026-05-04 19:03 51.29359 6.78443 147 ft 1 kts 35°
2026-05-04 19:04 51.29375 6.78460 148 ft 4 kts 33°
2026-05-04 19:04 51.29394 6.78469 149 ft 0 kts
2026-05-04 19:04 51.29400 6.78470 149 ft 0 kts
2026-05-04 19:06 51.29403 6.78470 149 ft 3 kts
2026-05-04 19:06 51.29465 6.78454 150 ft 9 kts 328°
2026-05-04 19:06 51.29472 6.78376 149 ft 8 kts 249°
2026-05-04 19:07 51.29464 6.78356 149 ft 0 kts 231°
2026-05-04 19:07 51.29462 6.78352 149 ft 3 kts 231°
2026-05-04 19:08 51.29314 6.78040 142 ft 73 kts 232°
2026-05-04 19:08 51.28869 6.77107 127 ft 135 kts 233°
2026-05-04 19:08 51.28234 6.75780 373 ft 158 kts 235°
2026-05-04 19:08 51.27650 6.74244 943 ft 165 kts 237°
2026-05-04 19:09 51.26994 6.72726 1580 ft 165 kts 231°
2026-05-04 19:09 51.26282 6.71258 2151 ft 175 kts 230°
2026-05-04 19:09 51.25767 6.70207 2392 ft 189 kts 231°
2026-05-04 19:09 51.24599 6.67805 2892 ft 219 kts 231°
2026-05-04 19:10 51.23970 6.66498 3201 ft 231 kts 231°
2026-05-04 19:10 51.22892 6.64491 3711 ft 248 kts 216°
2026-05-04 19:10 51.21258 6.63534 4332 ft 258 kts 181°
2026-05-04 19:10 51.19454 6.63732 5156 ft 262 kts 175°
2026-05-04 19:11 51.17625 6.64033 6004 ft 265 kts 174°
2026-05-04 19:11 51.15772 6.64454 6802 ft 270 kts 163°
2026-05-04 19:11 51.14148 6.65987 7543 ft 276 kts 136°
2026-05-04 19:11 51.13192 6.68649 8438 ft 285 kts 108°
2026-05-04 19:12 51.13078 6.71793 9236 ft 293 kts 91°
2026-05-04 19:12 51.13335 6.78414 10405 ft 315 kts 89°
2026-05-04 19:12 51.13487 6.82036 10600 ft 338 kts 89°
2026-05-04 19:13 51.13645 6.85885 10738 ft 361 kts 89°
2026-05-04 19:13 51.13807 6.89971 11056 ft 375 kts 89°
2026-05-04 19:13 51.13967 6.94147 11652 ft 380 kts 89°
2026-05-04 19:13 51.14127 6.98388 12291 ft 384 kts 89°
2026-05-04 19:14 51.14285 7.02646 12936 ft 387 kts 89°
2026-05-04 19:14 51.14438 7.06953 13572 ft 391 kts 89°
2026-05-04 19:14 51.14590 7.11279 14152 ft 394 kts 89°
2026-05-04 19:14 51.14744 7.15737 14653 ft 399 kts 89°
2026-05-04 19:15 51.14893 7.20165 15170 ft 404 kts 89°
2026-05-04 19:15 51.15040 7.24591 15700 ft 407 kts 89°
2026-05-04 19:15 51.15190 7.29120 16262 ft 410 kts 89°
2026-05-04 19:15 51.15337 7.33654 16824 ft 413 kts 90°
2026-05-04 19:16 51.15090 7.38202 17354 ft 412 kts 106°
2026-05-04 19:16 51.14086 7.42321 17881 ft 409 kts 122°
2026-05-04 19:16 51.12330 7.46029 18412 ft 409 kts 134°
2026-05-04 19:16 51.10431 7.49414 18861 ft 411 kts 134°
2026-05-04 19:17 51.08534 7.52757 19280 ft 415 kts 134°
2026-05-04 19:17 51.06565 7.56211 19695 ft 418 kts 135°
2026-05-04 19:17 51.04631 7.59605 20098 ft 422 kts 135°
2026-05-04 19:17 51.02647 7.63091 20486 ft 425 kts 135°
2026-05-04 19:18 51.00662 7.66583 20898 ft 428 kts 135°
2026-05-04 19:18 50.98635 7.70151 21280 ft 431 kts 135°
2026-05-04 19:18 50.96521 7.73441 21679 ft 430 kts 143°
2026-05-04 19:18 50.94095 7.76200 22055 ft 430 kts 151°
2026-05-04 19:19 50.91550 7.78697 22433 ft 432 kts 151°
2026-05-04 19:19 50.88984 7.81208 22795 ft 435 kts 151°
2026-05-04 19:19 50.86407 7.83729 23145 ft 437 kts 151°
2026-05-04 19:19 50.83817 7.86267 23486 ft 439 kts 151°
2026-05-04 19:20 50.81204 7.88835 23790 ft 442 kts 151°
2026-05-04 19:20 50.78591 7.91403 24102 ft 443 kts 151°
2026-05-04 19:20 50.75926 7.94015 24411 ft 444 kts 151°
2026-05-04 19:20 50.73306 7.96580 24721 ft 445 kts 151°
2026-05-04 19:21 50.70656 7.99106 24983 ft 445 kts 156°
2026-05-04 19:21 50.67829 8.00854 25250 ft 442 kts 165°
2026-05-04 19:21 50.64859 8.02360 25523 ft 443 kts 165°
2026-05-04 19:21 50.61925 8.03831 25775 ft 444 kts 165°
2026-05-04 19:22 50.58967 8.05307 26038 ft 445 kts 165°
2026-05-04 19:22 50.56018 8.06779 26316 ft 445 kts 165°
2026-05-04 19:22 50.53058 8.08259 26565 ft 446 kts 165°
2026-05-04 19:22 50.50133 8.09722 26784 ft 447 kts 165°
2026-05-04 19:23 50.47169 8.11205 27048 ft 447 kts 165°
2026-05-04 19:23 50.44208 8.12684 27372 ft 446 kts 165°
2026-05-04 19:23 50.41259 8.14153 27692 ft 444 kts 165°
2026-05-04 19:23 50.38320 8.15614 28018 ft 443 kts 166°
2026-05-04 19:24 50.35380 8.17071 28334 ft 442 kts 165°
2026-05-04 19:24 50.32458 8.18520 28654 ft 441 kts 165°
2026-05-04 19:24 50.29535 8.19971 28959 ft 440 kts 165°
2026-05-04 19:24 50.26615 8.21419 29274 ft 439 kts 165°
2026-05-04 19:25 50.23695 8.22862 29597 ft 438 kts 165°
2026-05-04 19:25 50.20794 8.24292 29933 ft 437 kts 165°
2026-05-04 19:25 50.17895 8.25721 30228 ft 436 kts 165°
2026-05-04 19:25 50.14996 8.27149 30495 ft 435 kts 166°
2026-05-04 19:26 50.12110 8.28567 30705 ft 436 kts 166°
2026-05-04 19:26 50.09209 8.29990 30951 ft 436 kts 166°
2026-05-04 19:26 50.06318 8.31406 31228 ft 435 kts 166°
2026-05-04 19:26 50.03433 8.32819 31512 ft 434 kts 166°
2026-05-04 19:27 50.00551 8.34232 31799 ft 433 kts 166°
2026-05-04 19:27 49.97681 8.35637 32092 ft 432 kts 166°
2026-05-04 19:27 49.94818 8.37036 32384 ft 431 kts 166°
2026-05-04 19:27 49.91967 8.38427 32681 ft 429 kts 166°
2026-05-04 19:28 49.89119 8.39813 32965 ft 428 kts 166°
2026-05-04 19:28 49.86334 8.41494 33242 ft 431 kts 158°
2026-05-04 19:28 49.83748 8.43866 33521 ft 435 kts 148°
2026-05-04 19:28 49.81414 8.46906 33799 ft 439 kts 141°
2026-05-04 19:29 49.79201 8.50160 34056 ft 439 kts 141°
2026-05-04 19:29 49.76984 8.53404 34280 ft 438 kts 141°
2026-05-04 19:29 49.74735 8.56568 34486 ft 435 kts 146°
2026-05-04 19:29 49.72249 8.59185 34698 ft 429 kts 155°
2026-05-04 19:30 49.69558 8.61102 34886 ft 424 kts 165°
2026-05-04 19:30 49.63856 8.63104 34988 ft 420 kts 173°
2026-05-04 19:31 49.58061 8.64704 35000 ft 420 kts 173°
2026-05-04 19:31 49.52343 8.66298 35001 ft 420 kts 173°
2026-05-04 19:32 49.46610 8.68027 35000 ft 423 kts 167°
2026-05-04 19:32 49.41094 8.71327 35070 ft 426 kts 161°
2026-05-04 19:32 49.38359 8.73057 35280 ft 426 kts 161°
2026-05-04 19:33 49.35619 8.74785 35478 ft 426 kts 161°
2026-05-04 19:33 49.32876 8.76509 35662 ft 426 kts 161°
2026-05-04 19:33 49.30133 8.78232 35838 ft 426 kts 161°
2026-05-04 19:33 49.27394 8.79947 36013 ft 426 kts 161°
2026-05-04 19:34 49.24650 8.81661 36179 ft 425 kts 161°
2026-05-04 19:34 49.21901 8.83375 36334 ft 425 kts 161°
2026-05-04 19:34 49.19158 8.85084 36486 ft 425 kts 161°
2026-05-04 19:34 49.16418 8.86791 36607 ft 426 kts 161°
2026-05-04 19:35 49.13670 8.88500 36730 ft 426 kts 161°
2026-05-04 19:35 49.10916 8.90212 36895 ft 426 kts 161°
2026-05-04 19:35 49.08178 8.91912 36974 ft 428 kts 161°
2026-05-04 19:36 49.02634 8.95347 36985 ft 432 kts 161°
2026-05-04 19:36 48.97054 8.98799 36983 ft 433 kts 161°
2026-05-04 19:37 48.91496 9.02229 36979 ft 434 kts 161°
2026-05-04 19:37 48.85889 9.05688 36979 ft 434 kts 161°
2026-05-04 19:38 48.80281 9.09134 36979 ft 434 kts 161°
2026-05-04 19:38 48.74683 9.12562 36979 ft 434 kts 161°
2026-05-04 19:39 48.69063 9.15999 36972 ft 434 kts 161°
2026-05-04 19:39 48.63485 9.19387 36958 ft 435 kts 161°
2026-05-04 19:40 48.57825 9.22814 36965 ft 436 kts 161°
2026-05-04 19:40 48.52229 9.26215 36989 ft 436 kts 161°
2026-05-04 19:41 48.46562 9.29657 36996 ft 437 kts 161°
2026-05-04 19:41 48.40949 9.33040 37002 ft 437 kts 161°
2026-05-04 19:42 48.35303 9.36445 36995 ft 437 kts 161°
2026-05-04 19:42 48.29660 9.39840 36997 ft 437 kts 161°
2026-05-04 19:43 48.24019 9.43212 36989 ft 436 kts 161°
2026-05-04 19:43 48.18365 9.46585 36968 ft 437 kts 161°
2026-05-04 19:44 48.12721 9.49959 36972 ft 437 kts 161°
2026-05-04 19:44 48.07058 9.53333 36978 ft 437 kts 161°
2026-05-04 19:45 48.01462 9.56956 36966 ft 441 kts 153°
2026-05-04 19:45 47.96349 9.62087 36968 ft 444 kts 149°
2026-05-04 19:46 47.91247 9.67310 36972 ft 444 kts 149°
2026-05-04 19:46 47.86178 9.72477 36975 ft 445 kts 149°
2026-05-04 19:47 47.81061 9.77672 36966 ft 445 kts 149°
2026-05-04 19:47 47.75943 9.82859 36968 ft 446 kts 149°
2026-05-04 19:48 47.71639 9.87207 36974 ft 446 kts 149°
2026-05-04 19:48 47.66509 9.92387 36981 ft 446 kts 149°
2026-05-04 19:49 47.61407 9.97542 36989 ft 446 kts 149°
2026-05-04 19:49 47.56272 10.02715 36988 ft 446 kts 149°
2026-05-04 19:50 47.51120 10.07877 36981 ft 446 kts 149°
2026-05-04 19:50 47.45972 10.13016 36986 ft 447 kts 149°
2026-05-04 19:51 47.40840 10.18141 36995 ft 447 kts 149°
2026-05-04 19:51 47.35678 10.23280 37008 ft 447 kts 149°
2026-05-04 19:52 47.30503 10.28416 37005 ft 448 kts 149°
2026-05-04 19:52 47.25335 10.33545 37015 ft 449 kts 149°
2026-05-04 19:53 47.20135 10.38681 37017 ft 450 kts 149°
2026-05-04 19:53 47.14942 10.43800 37049 ft 450 kts 149°
2026-05-04 19:54 47.09770 10.48885 37044 ft 450 kts 149°
2026-05-04 19:54 47.04323 10.53413 37064 ft 445 kts 162°
2026-05-04 19:55 46.98474 10.56149 37084 ft 443 kts 166°
2026-05-04 19:55 46.92573 10.58813 37098 ft 443 kts 166°
2026-05-04 19:56 46.86676 10.61477 37105 ft 444 kts 166°
2026-05-04 19:56 46.80760 10.64135 37127 ft 444 kts 166°
2026-05-04 19:57 46.74792 10.66414 37130 ft 440 kts 176°
2026-05-04 19:57 46.68759 10.66140 37147 ft 432 kts 194°
2026-05-04 19:58 46.63004 10.63729 37138 ft 431 kts 199°